User: anonymous
Location: Ostrava
(49.8330°N, 18.2830°E)
Time: 19:44:39
(UTC+02:00)
Language:

Cosmos 1400 Rocket - Orbit

View from above orbital plane
View from above orbital plane
View from above satellite
View from above satellite

Ground track
Ground track

The orbit data is extracted from the following two-line orbital elements,

1 13403U 82079B   14204.50469371  .00000098  00000-0  53538-5 0  6187
2 13403 081.1691 041.1859 0036978 163.4997 196.7438 15.03591530737275
Epoch (UTC): 23 July 2014 12:06:45
Eccentricity: 0.0036978
inclination: 81.1691°
perigee height: 530 km
apogee height: 581 km
right ascension of ascending node: 41.1859°
argument of perigee: 163.4997°
revolutions per day: 15.03591530
mean anomaly at epoch: 196.7438°
orbit number at epoch: 73727

The dashed part of the orbit path shows where the satellite is in the earth's shadow,  

DLR